This is the latest recevied weather packets stored in our database for station/object UR7D-12. If no packets are shown the sender has not sent any weather packets the latest 10 day(s).
| Time | Temp. | Humidity | Pressure | Rain* | Wind** | Luminosity | Snow |
|---|---|---|---|---|---|---|---|
| 1777706454 | 13.33° C | 55% | 997.8 hPa | 0 mm | - | - | - |
| 1777705854 | 12.78° C | 56% | 997.7 hPa | 0 mm | - | - | - |
| 1777704954 | 12.22° C | 61% | 997.8 hPa | 0 mm | - | - | - |
| 1777704654 | 12.22° C | 62% | 997.7 hPa | 0 mm | - | - | - |
| 1777704052 | 11.67° C | 62% | 997.8 hPa | 0 mm | - | - | - |
| 1777703753 | 11.67° C | 63% | 997.8 hPa | 0 mm | - | - | - |
| 1777703452 | 11.11° C | 63% | 997.7 hPa | 0 mm | - | - | - |
| 1777703152 | 11.11° C | 64% | 997.7 hPa | 0 mm | - | - | - |
| 1777702852 | 10.56° C | 64% | 997.7 hPa | 0 mm | - | - | - |
| 1777702552 | 10.56° C | 64% | 997.7 hPa | 0 mm | - | - | - |
| 1777701953 | 10.56° C | 64% | 997.6 hPa | 0 mm | - | - | - |
| 1777701353 | 10° C | 66% | 997.4 hPa | 0 mm | - | - | - |
| 1777701049 | 9.44° C | 66% | 997.5 hPa | 0 mm | - | - | - |
| 1777700751 | 9.44° C | 67% | 997.5 hPa | 0 mm | - | - | - |
| 1777700449 | 9.44° C | 67% | 997.5 hPa | 0 mm | - | - | - |
| 1777700150 | 9.44° C | 68% | 997.5 hPa | 0 mm | - | - | - |
| 1777698949 | 8.33° C | 71% | 997.7 hPa | 0 mm | - | - | - |
| 1777698648 | 8.33° C | 71% | 997.7 hPa | 0 mm | - | - | - |
| 1777698047 | 7.78° C | 72% | 997.6 hPa | 0 mm | - | - | - |
| 1777697750 | 7.78° C | 73% | 997.6 hPa | 0 mm | - | - | - |
| 1777697446 | 7.22° C | 73% | 997.6 hPa | 0 mm | - | - | - |
| 1777697150 | 7.22° C | 74% | 997.6 hPa | 0 mm | - | - | - |
| 1777696545 | 6.67° C | 74% | 997.5 hPa | 0 mm | - | - | - |
| 1777696246 | 6.67° C | 74% | 997.5 hPa | 0 mm | - | - | - |
| 1777695948 | 6.67° C | 75% | 997.4 hPa | 0 mm | - | - | - |
* Rain latest hour (hover to see other rain measurements)
** Current wind speed in m/s (hover to see current wind gust speed)